Vertical_Velocity
-2 -0 -1 -0 -3 -2 -1 3 1 -0 -2 -0 2 0 -2 -2 1 1 4 2 5 3 1 -2 0 -1 -4 -0 2 -7 0 -3
-0 0 -0 -1 -1 1 -1 -1 -1 -4 -2 1 2 2 -1 3 1 2 -2 -1 -1 4 -3 -2 4 -2 -1 -6 -1 1 8 -3
-1 -1 -1 -0 -3 -2 -1 -1 -4 5 1 -1 -2 -3 2 -2 -3 1 1 -1 0 3 0 -0 3 1 5 3 -5 -2 3 -3
-1 -1 -1 -1 -0 -2 -4 -2 -4 6 0 -5 -1 -1 2 2 -3 -3 -1 -1 -2 -4 0 -1 -5 5 -3 -1 -4 -3 -1 -3
-2 -1 -3 -4 -1 -2 1 -4 -9 7 -0 -6 5 1 3 2 0 -6 -0 -6 1 -3 1 8 1 -3 0 1 3 0 -7 2
-5 -3 -2 -2 -3 -0 -6 -1 -5 -1 2 -2 -3 3 -1 4 0 5 -4 6 -0 2 4 -0 -6 -2 1 2 -6 -2 -3 0
-2 -0 -2 -3 -4 -2 -4 -4 -4 -1 -1 2 2 -1 -1 -3 1 -2 0 3 -2 -2 2 2 2 -4 -0 -4 -1 2 2 -4
-0 -1 -3 -3 1 2 -2 -1 -3 -3 -2 -3 0 -4 1 1 2 0 2 -3 2 7 2 -0 -1 2 2 0 5 0 -3 3
-4 -6 -2 -2 -4 -3 0 1 2 -0 -1 -0 3 4 4 4 8 2 -7 5 4 3 -4 -1 2 3 4 1 2 -0 -4 2
3 2 1 -0 -0 3 2 0 -1 -0 -4 -4 -1 4 -2 -1 7 -0 4 1 -4 -1 0 -1 3 1 0 -4 3 5 -4 3
1 -3 -2 0 5 4 2 1 1 -1 3 1 -1 -0 0 1 0 2 1 1 4 -5 1 0 -0 -0 2 -1 1 4 1 3
-4 3 2 4 -0 1 3 0 -1 4 -0 0 1 1 -1 -4 -0 1 3 3 3 2 1 8 3 2 2 -2 2 5 -1 -6
-5 -1 -0 1 3 1 0 2 -0 1 4 1 1 1 2 -0 4 1 4 3 2 -1 2 2 0 3 1 -4 -4 -0 -2 -1
5 2 -6 4 7 4 -1 0 3 -4 -1 1 3 1 6 3 3 2 6 4 7 1 1 3 -1 5 5 3 -9 -1 3 5
-0 -5 -5 1 7 -7 8 -6 3 3 -4 5 -0 4 2 5 4 3 6 2 -1 -0 -4 -2 6 1 1 1 -3 -0 -0 0
-5 -2 1 1 -2 5 -6 3 -5 4 -4 -6 -1 1 -3 2 4 1 -1 4 3 5 7 3 0 -3 -9 4 1 -0 -2 -4
3 3 -6 5 2 -2 5 -1 -7 7 -5 0 -3 3 -1 2 -0 -2 3 6 5 8 3 2 3 6 4 9 -1 -5 -4 -9
-0 -0 -2 -6 2 -2 1 1 2 4 1 -1 3 6 3 2 1 -1 1 -1 -2 -2 1 3 2 2 -4 -2 4 -2 -2 -4
-4 1 -3 -3 -1 1 4 -5 6 -1 1 3 1 1 5 2 6 10 12 5 -0 -2 -3 1 -2 0 -1 -7 -9 6 7 -0
Height
5827 5828 5829 5828 5828 5829 5829 5829 5829 5828 5827 5826 5824 5822 5819 5815 5813 5810 5808 5806 5804 5800 5797 5793 5788 5786 5782 5778 5774 5770 5768 5763
5823 5823 5823 5824 5824 5824 5824 5824 5824 5822 5820 5818 5816 5813 5811 5808 5805 5804 5801 5799 5796 5792 5788 5784 5781 5778 5772 5767 5763 5759 5755 5750
5817 5818 5818 5818 5818 5817 5818 5817 5815 5816 5813 5810 5810 5809 5805 5802 5800 5797 5795 5791 5788 5784 5779 5776 5772 5766 5762 5757 5751 5746 5741 5736
5813 5813 5812 5812 5812 5811 5810 5810 5808 5810 5808 5804 5804 5801 5799 5795 5794 5789 5786 5783 5777 5774 5771 5765 5760 5757 5751 5746 5740 5734 5730 5724
5809 5808 5808 5807 5806 5806 5805 5804 5802 5805 5802 5798 5795 5792 5789 5788 5784 5781 5779 5775 5770 5767 5761 5755 5750 5744 5739 5733 5727 5721 5716 5712
5803 5803 5802 5802 5802 5801 5800 5798 5796 5795 5792 5789 5786 5784 5781 5777 5774 5770 5766 5762 5759 5753 5747 5743 5738 5732 5726 5721 5713 5709 5703 5698
5799 5798 5797 5795 5795 5795 5794 5791 5789 5786 5784 5781 5778 5774 5770 5769 5763 5759 5755 5753 5747 5740 5736 5731 5726 5720 5714 5707 5702 5696 5691 5684
5791 5790 5790 5789 5787 5787 5786 5782 5780 5777 5775 5772 5771 5766 5761 5757 5754 5750 5746 5740 5735 5729 5724 5718 5713 5707 5700 5695 5690 5684 5677 5671
5783 5783 5781 5780 5778 5777 5775 5774 5771 5769 5767 5764 5761 5756 5752 5748 5745 5739 5733 5727 5721 5716 5712 5705 5698 5693 5688 5682 5675 5668 5662 5655
5773 5772 5771 5770 5769 5767 5766 5764 5762 5760 5757 5754 5751 5747 5742 5737 5732 5726 5721 5715 5710 5705 5697 5691 5685 5679 5674 5666 5658 5650 5644 5639
5766 5765 5762 5761 5761 5760 5757 5754 5751 5748 5744 5740 5736 5733 5729 5725 5719 5713 5708 5703 5697 5691 5684 5677 5671 5665 5656 5649 5642 5634 5628 5621
5756 5753 5753 5753 5751 5750 5747 5744 5740 5738 5734 5730 5726 5722 5717 5711 5706 5701 5696 5690 5683 5677 5669 5663 5655 5648 5640 5634 5626 5619 5610 5602
5746 5742 5742 5744 5741 5739 5736 5733 5729 5725 5722 5716 5713 5707 5702 5697 5692 5687 5681 5675 5669 5661 5654 5648 5641 5633 5625 5618 5610 5603 5595 5586
5736 5736 5732 5730 5728 5727 5724 5720 5717 5712 5708 5702 5698 5693 5689 5684 5679 5673 5667 5661 5654 5648 5641 5634 5627 5619 5610 5602 5594 5588 5580 5571
5727 5725 5721 5717 5716 5711 5709 5705 5702 5697 5692 5687 5683 5679 5674 5670 5665 5659 5653 5647 5641 5633 5627 5620 5612 5604 5595 5588 5580 5573 5563 5554
5712 5710 5706 5705 5702 5699 5695 5691 5686 5684 5678 5673 5669 5666 5661 5656 5650 5645 5639 5634 5627 5621 5614 5607 5598 5590 5583 5573 5564 5555 5546 5536
5695 5693 5693 5692 5689 5685 5680 5676 5672 5669 5665 5660 5655 5651 5645 5640 5635 5630 5627 5620 5613 5607 5599 5592 5584 5576 5565 5557 5546 5538 5529 5518
5685 5683 5681 5678 5675 5671 5667 5661 5656 5653 5649 5645 5641 5637 5631 5626 5620 5615 5609 5604 5598 5591 5585 5577 5569 5559 5550 5540 5532 5522 5512 5502
5670 5668 5665 5662 5659 5655 5652 5648 5644 5638 5635 5631 5626 5622 5616 5611 5606 5601 5593 5586 5582 5577 5570 5563 5555 5545 5537 5527 5519 5508 5498 5491